Regional Weather Roundup
Issued by NWS

Home | Current Version | Previous Version | Graphics & Text | Print | Product List | Glossary On
Versions: 1 2 3 4 5 6 7 8 9 10 11 12 13 14 15 16 17 18 19 20 21 22 23 24 25 26 27 28 29 30 31 32 33 34 35 36 37 38 39 40 41 42 43 44 45 46 47 48 49 50
000
ASUS43 KIND 271509
RWRIN

WEATHER ROUNDUP FOR INDIANA
NATIONAL WEATHER SERVICE INDIANAPOLIS IN
1100 AM EDT MON MAR 27 2017

NOTE: "FAIR" INDICATES FEW OR NO CLOUDS BELOW 12,000 FEET WITH NO
SIGNIFICANT WEATHER AND/OR OBSTRUCTIONS TO VISIBILITY.

* - STATION DOES NOT REPORT WEATHER SUCH AS PRECIPITATION OR FOG.

+ - STATION NOT QUALITY CONTROLLED BY THE NATIONAL WEATHER SERVICE.
    USE DATA WITH CAUTION...ESPECIALLY DEWPOINT AND RELATIVE
    HUMIDITY OBSERVATIONS.

INZ001>003-010>013-019-020-271600-
NORTHWEST INDIANA

CITY           SKY/WX    TMP DP  RH WIND       PRES   REMARKS
GARY /AIRPORT/ CLOUDY    52  46  82 CALM      29.95S
KNOX *+        CLOUDY    50  34  53 CALM      29.95R
LA PORTE +     CLOUDY    51  48  90 CALM      29.95S
MICHIGAN CITY+ CLOUDY    46  46 100 N5        29.96S FOG
MONTICELLO +   CLOUDY    52  47  84 CALM      29.95S
RENSSELAER +   CLOUDY    52  50  93 CALM      29.95S
VALPARAISO     CLOUDY    52  49  89 N3        29.95R

$$

LMZ046-743>745-271600-
SOUTHERN LAKE MICHIGAN

STATION/POSITION TIME  TEMP    WIND        PRES    WAVE
                       AIR SEA DIR/SP/G            HT
                 (UTC) (F)     (DEG/KT/KT) (MB)    (FT)
BURNS HARBOR     1400   46     290/  6/ 10 1014.2
MICHIGAN CITY    1440   40      50/  9/ 10   N/A

$$

INZ004-005-014>016-021>024-271600-
NORTH CENTRAL INDIANA

CITY           SKY/WX    TMP DP  RH WIND       PRES   REMARKS
ELKHART        CLOUDY    54  48  82 W6        29.97R
GOSHEN         CLOUDY    53  47  79 SW9       29.96R
LOGANSPORT +   CLOUDY    52  48  87 CALM      29.97S
PERU/GRISSOM   CLOUDY    54  53  95 CALM      29.95S
ROCHESTER +    CLOUDY    55  50  82 S5        29.97R
SOUTH BEND     CLOUDY    51  48  89 W5        29.97R
WARSAW +       CLOUDY    52  46  82 W6        29.97R

$$

INZ006>009-017-018-025>027-271600-
NORTHEAST INDIANA

CITY           SKY/WX    TMP DP  RH WIND       PRES   REMARKS
ANGOLA *+      CLOUDY    52  43  71 W3        29.95R
AUBURN +       PTSUNNY   54  48  82 SW6       29.97R
FORT WAYNE     CLOUDY    54  49  83 SW8       29.98R
HUNTINGTON +   CLOUDY    52  49  87 CALM      29.98R
KENDALLVILLE + CLOUDY    51  50  95 W6        29.96S

$$

INZ028-029-035-036-043>045-051>053-271600-
WEST CENTRAL INDIANA

CITY           SKY/WX    TMP DP  RH WIND       PRES   REMARKS
CRAWFORDSVL +  PTSUNNY   55  52  89 SE5       29.96S
GREENCASTLE +  CLOUDY    55  50  82 SE6       29.94F
LAFAYETTE      CLOUDY    54  50  86 E3        29.96S
TERRE HAUTE    CLOUDY    56  49  77 SE7       29.94F

$$

INZ030>032-037>040-046>048-054>057-064-065-271600-
CENTRAL INDIANA

CITY           SKY/WX    TMP DP  RH WIND       PRES   REMARKS
ANDERSON       SUNNY     55  50  82 S6        29.99S
CP ATTERBURY + MOSUNNY   59  50  72 SE7       29.97F
COLUMBUS       SUNNY     57  54  88 SE6       29.98F
FISHERS *+     MOSUNNY   57  54  88 CALM      29.97S
FRANKFORT +    CLOUDY    58  52  78 S5        29.98S
GREENWOOD *+   MOSUNNY   58  52  81 SE7       29.97F
INDIANAPOLIS   PTSUNNY   58  51  78 SE8       29.95F
-EAGLE CREEK   MOSUNNY   58  50  75 E7        29.95F
KOKOMO +       PTSUNNY   55  50  82 S5        29.98R
MARION +       PTSUNNY   54  49  84 CALM      29.98S
MT COMFORT *+  MOSUNNY   57  52  82 S5        29.97F
SHELBYVILLE    SUNNY     58  50  75 SE8       29.96F
ZIONSVILLE +   MOSUNNY   56  50  81 SE6       29.97S

$$

INZ033-034-041-042-049-050-058-059-271600-
EAST CENTRAL INDIANA

CITY           SKY/WX    TMP DP  RH WIND       PRES   REMARKS
MUNCIE         MOSUNNY   57  50  77 S6        29.97F
RICHMOND +     SUNNY     55  50  82 S3        30.00S

$$

INZ060-061-067>069-081>083-085>088-271600-
SOUTHWEST INDIANA

CITY           SKY/WX    TMP DP  RH WIND       PRES   REMARKS
EVANSVILLE     LGT RAIN  54  51  90 E8        29.90F
HUNTINGBURG *+ LGT RAIN  53  51  93 E10       29.95F
WASHINGTON +   CLOUDY    56  50  80 MISG      29.96F

$$

INZ062-063-066-070>080-084-089>092-271600-
SOUTH CENTRAL AND SOUTHEAST INDIANA

CITY           SKY/WX    TMP DP  RH WIND       PRES   REMARKS
BEDFORD +      CLOUDY    55  48  76 SE7       29.96S
BLOOMINGTON    PTSUNNY   56  48  74 SE7       29.95F
MADISON *+     PTSUNNY   55  50  82 E5        30.01S
NORTH VERNON + MOSUNNY   59  50  72 E3        29.99S
SEYMOUR +      PTSUNNY   59  52  77 SE7       29.98S

$$




USA.gov is the U.S. government's official web portal to all federal, state and local government web resources and services.